Time,TemperatureF,DewpointF,PressureIn,WindDirection,WindDirectionDegrees,WindSpeedMPH,WindSpeedGustMPH,Humidity,HourlyPrecipIn,Conditions,Clouds,dailyrainin,SolarRadiationWatts/m^2,SoftwareType,DateUTC
2013-10-12 00:01:00,64.5,57.1,30.06,North,360,1.0,1.0,77,0.00,,,0.00,0,Wunderground v.1.15,2013-10-12 04:01:00,
2013-10-12 00:07:00,64.3,57.3,30.06,North,360,0.0,1.0,78,0.00,,,0.00,0,Wunderground v.1.15,2013-10-12 04:07:00,
2013-10-12 00:11:00,64.2,57.2,30.06,North,360,1.0,1.0,78,0.00,,,0.00,0,Wunderground v.1.15,2013-10-12 04:11:00,
2013-10-12 00:17:00,64.0,57.0,30.06,North,360,1.0,3.0,78,0.00,,,0.00,0,Wunderground v.1.15,2013-10-12 04:17:00,
2013-10-12 00:23:00,63.7,56.7,30.06,North,360,1.0,4.0,78,0.00,,,0.00,0,Wunderground v.1.15,2013-10-12 04:23:00,
2013-10-12 00:24:00,63.7,56.7,30.06,North,360,1.0,4.0,78,0.00,,,0.00,0,Wunderground v.1.15,2013-10-12 04:24:00,
2013-10-12 00:30:00,63.5,56.5,30.06,North,360,2.0,2.0,78,0.00,,,0.00,0,Wunderground v.1.15,2013-10-12 04:30:00,
2013-10-12 00:36:00,63.2,56.2,30.06,North,360,1.0,3.0,78,0.00,,,0.00,0,Wunderground v.1.15,2013-10-12 04:36:00,
2013-10-12 00:43:00,62.7,54.7,30.06,North,360,2.0,2.0,75,0.00,,,0.00,0,Wunderground v.1.15,2013-10-12 04:43:00,
2013-10-12 00:50:00,62.6,53.1,30.06,North,360,2.0,4.0,71,0.00,,,0.00,0,Wunderground v.1.15,2013-10-12 04:50:00,
2013-10-12 00:56:00,62.7,52.8,30.06,North,360,1.0,4.0,70,0.00,,,0.00,0,Wunderground v.1.15,2013-10-12 04:56:00,
2013-10-12 01:04:00,62.7,53.2,30.06,North,360,0.0,1.0,71,0.00,,,0.00,0,Wunderground v.1.15,2013-10-12 05:04:00,
2013-10-12 01:10:00,62.7,53.2,30.06,North,360,0.0,1.0,71,0.00,,,0.00,0,Wunderground v.1.15,2013-10-12 05:10:00,
2013-10-12 01:16:00,62.6,53.1,30.07,North,360,1.0,3.0,71,0.00,,,0.00,0,Wunderground v.1.15,2013-10-12 05:16:00,
2013-10-12 01:23:00,62.6,52.7,30.07,North,360,1.0,3.0,70,0.00,,,0.00,0,Wunderground v.1.15,2013-10-12 05:23:00,
2013-10-12 01:28:00,62.4,52.5,30.07,North,360,1.0,3.0,70,0.00,,,0.00,0,Wunderground v.1.15,2013-10-12 05:28:00,
2013-10-12 01:34:00,62.4,52.5,30.07,North,360,1.0,2.0,70,0.00,,,0.00,0,Wunderground v.1.15,2013-10-12 05:34:00,
2013-10-12 01:40:00,62.3,52.4,30.07,North,360,1.0,1.0,70,0.00,,,0.00,0,Wunderground v.1.15,2013-10-12 05:40:00,
2013-10-12 01:46:00,62.1,52.2,30.07,North,360,1.0,1.0,70,0.00,,,0.00,0,Wunderground v.1.15,2013-10-12 05:46:00,
2013-10-12 01:54:00,62.0,52.1,30.07,North,360,1.0,1.0,70,0.00,,,0.00,0,Wunderground v.1.15,2013-10-12 05:54:00,
2013-10-12 02:00:00,61.8,51.9,30.07,North,360,1.0,4.0,70,0.00,,,0.00,0,Wunderground v.1.15,2013-10-12 06:00:00,
2013-10-12 02:06:00,61.8,51.5,30.07,North,360,2.0,4.0,69,0.00,,,0.00,0,Wunderground v.1.15,2013-10-12 06:06:00,
2013-10-12 02:14:00,61.6,50.5,30.07,North,360,3.0,3.0,67,0.00,,,0.00,0,Wunderground v.1.15,2013-10-12 06:14:00,
2013-10-12 02:20:00,61.8,50.3,30.07,North,360,2.0,2.0,66,0.00,,,0.00,0,Wunderground v.1.15,2013-10-12 06:20:00,
2013-10-12 02:26:00,61.8,50.3,30.07,North,360,2.0,3.0,66,0.00,,,0.00,0,Wunderground v.1.15,2013-10-12 06:26:00,
2013-10-12 02:32:00,61.8,49.9,30.07,North,360,3.0,4.0,65,0.00,,,0.00,0,Wunderground v.1.15,2013-10-12 06:32:00,
2013-10-12 02:39:00,61.6,48.9,30.07,North,360,3.0,4.0,63,0.00,,,0.00,0,Wunderground v.1.15,2013-10-12 06:39:00,
2013-10-12 02:45:00,61.6,48.4,30.07,North,360,3.0,4.0,62,0.00,,,0.00,0,Wunderground v.1.15,2013-10-12 06:45:00,
2013-10-12 02:53:00,61.5,47.0,30.07,North,360,3.0,3.0,59,0.00,,,0.00,0,Wunderground v.1.15,2013-10-12 06:53:00,
2013-10-12 02:59:00,61.5,46.6,30.07,North,360,2.0,3.0,58,0.00,,,0.00,0,Wunderground v.1.15,2013-10-12 06:59:00,
2013-10-12 03:05:00,61.5,46.1,30.07,North,360,2.0,3.0,57,0.00,,,0.00,0,Wunderground v.1.15,2013-10-12 07:05:00,
2013-10-12 03:12:00,61.3,45.9,30.07,North,360,2.0,4.0,57,0.00,,,0.00,0,Wunderground v.1.15,2013-10-12 07:12:00,
2013-10-12 03:19:00,61.2,45.4,30.07,North,360,2.0,4.0,56,0.00,,,0.00,0,Wunderground v.1.15,2013-10-12 07:19:00,
2013-10-12 03:25:00,61.2,44.4,30.07,North,360,2.0,5.0,54,0.00,,,0.00,0,Wunderground v.1.15,2013-10-12 07:25:00,
2013-10-12 03:33:00,61.2,44.4,30.08,North,360,1.0,2.0,54,0.00,,,0.00,0,Wunderground v.1.15,2013-10-12 07:33:00,
2013-10-12 03:39:00,61.0,43.2,30.08,North,360,1.0,1.0,52,0.00,,,0.00,0,Wunderground v.1.15,2013-10-12 07:39:00,
2013-10-12 03:45:00,61.0,42.7,30.08,North,360,2.0,2.0,51,0.00,,,0.00,0,Wunderground v.1.15,2013-10-12 07:45:00,
2013-10-12 03:53:00,60.9,42.6,30.08,North,360,2.0,3.0,51,0.00,,,0.00,0,Wunderground v.1.15,2013-10-12 07:53:00,
2013-10-12 03:59:00,60.9,42.1,30.08,North,360,2.0,2.0,50,0.00,,,0.00,0,Wunderground v.1.15,2013-10-12 07:59:00,
2013-10-12 04:05:00,60.9,41.6,30.08,North,360,2.0,3.0,49,0.00,,,0.00,0,Wunderground v.1.15,2013-10-12 08:05:00,
2013-10-12 04:13:00,60.7,40.3,30.08,North,360,2.0,4.0,47,0.00,,,0.00,0,Wunderground v.1.15,2013-10-12 08:13:00,
2013-10-12 04:19:00,60.7,40.3,30.08,North,360,2.0,2.0,47,0.00,,,0.00,0,Wunderground v.1.15,2013-10-12 08:19:00,
2013-10-12 04:25:00,60.7,40.3,30.08,North,360,2.0,3.0,47,0.00,,,0.00,0,Wunderground v.1.15,2013-10-12 08:25:00,
2013-10-12 04:33:00,60.7,39.8,30.08,North,360,2.0,4.0,46,0.00,,,0.00,0,Wunderground v.1.15,2013-10-12 08:33:00,
2013-10-12 04:39:00,60.5,39.6,30.08,North,360,3.0,3.0,46,0.00,,,0.00,0,Wunderground v.1.15,2013-10-12 08:39:00,
2013-10-12 04:44:00,60.5,39.6,30.08,North,360,3.0,4.0,46,0.00,,,0.00,0,Wunderground v.1.15,2013-10-12 08:44:00,
2013-10-12 04:51:00,60.5,39.6,30.08,North,360,2.0,3.0,46,0.00,,,0.00,0,Wunderground v.1.15,2013-10-12 08:51:00,
2013-10-12 04:56:00,60.5,39.6,30.08,North,360,2.0,2.0,46,0.00,,,0.00,0,Wunderground v.1.15,2013-10-12 08:56:00,
2013-10-12 05:02:00,60.4,39.5,30.09,North,360,1.0,2.0,46,0.00,,,0.00,0,Wunderground v.1.15,2013-10-12 09:02:00,
2013-10-12 05:08:00,60.4,40.1,30.09,North,360,2.0,2.0,47,0.00,,,0.00,0,Wunderground v.1.15,2013-10-12 09:08:00,
2013-10-12 05:14:00,60.2,39.9,30.09,North,360,2.0,4.0,47,0.00,,,0.00,0,Wunderground v.1.15,2013-10-12 09:14:00,
2013-10-12 05:22:00,60.2,40.4,30.10,North,360,2.0,3.0,48,0.00,,,0.00,0,Wunderground v.1.15,2013-10-12 09:22:00,
2013-10-12 05:28:00,60.1,40.3,30.10,North,360,2.0,2.0,48,0.00,,,0.00,0,Wunderground v.1.15,2013-10-12 09:28:00,
2013-10-12 05:34:00,60.1,40.9,30.10,North,360,3.0,4.0,49,0.00,,,0.00,0,Wunderground v.1.15,2013-10-12 09:34:00,
2013-10-12 05:42:00,59.9,40.7,30.10,North,360,4.0,4.0,49,0.00,,,0.00,0,Wunderground v.1.15,2013-10-12 09:42:00,
2013-10-12 05:48:00,59.9,41.2,30.10,North,360,3.0,3.0,50,0.00,,,0.00,0,Wunderground v.1.15,2013-10-12 09:48:00,
2013-10-12 05:54:00,59.8,41.6,30.10,North,360,3.0,5.0,51,0.00,,,0.00,0,Wunderground v.1.15,2013-10-12 09:54:00,
2013-10-12 06:02:00,59.6,42.4,30.10,North,360,3.0,5.0,53,0.00,,,0.00,0,Wunderground v.1.15,2013-10-12 10:02:00,
2013-10-12 06:08:00,59.5,42.8,30.10,North,360,4.0,4.0,54,0.00,,,0.00,0,Wunderground v.1.15,2013-10-12 10:08:00,
2013-10-12 06:14:00,59.3,43.1,30.10,North,360,4.0,5.0,55,0.00,,,0.00,0,Wunderground v.1.15,2013-10-12 10:14:00,
2013-10-12 06:22:00,59.2,43.0,30.10,North,360,3.0,4.0,55,0.00,,,0.00,0,Wunderground v.1.15,2013-10-12 10:22:00,
2013-10-12 06:28:00,59.0,42.8,30.10,North,360,3.0,4.0,55,0.00,,,0.00,0,Wunderground v.1.15,2013-10-12 10:28:00,
2013-10-12 06:34:00,58.9,43.2,30.10,North,360,3.0,4.0,56,0.00,,,0.00,0,Wunderground v.1.15,2013-10-12 10:34:00,
2013-10-12 06:42:00,58.7,43.0,30.10,North,360,3.0,4.0,56,0.00,,,0.00,0,Wunderground v.1.15,2013-10-12 10:42:00,
2013-10-12 06:47:00,58.6,42.9,30.10,North,360,3.0,3.0,56,0.00,,,0.00,0,Wunderground v.1.15,2013-10-12 10:47:00,
2013-10-12 06:53:00,58.4,42.8,30.10,North,360,2.0,4.0,56,0.00,,,0.00,0,Wunderground v.1.15,2013-10-12 10:53:00,
2013-10-12 07:00:00,58.3,43.1,30.11,North,360,3.0,3.0,57,0.00,,,0.00,0,Wunderground v.1.15,2013-10-12 11:00:00,
2013-10-12 07:07:00,58.1,43.4,30.11,North,360,2.0,2.0,58,0.00,,,0.00,0,Wunderground v.1.15,2013-10-12 11:07:00,
2013-10-12 07:13:00,58.0,43.3,30.11,North,360,2.0,4.0,58,0.00,,,0.00,0,Wunderground v.1.15,2013-10-12 11:13:00,
2013-10-12 07:21:00,57.8,43.1,30.11,North,360,2.0,3.0,58,0.00,,,0.00,9,Wunderground v.1.15,2013-10-12 11:21:00,
2013-10-12 07:27:00,57.8,43.1,30.11,North,360,3.0,3.0,58,0.00,,,0.00,19,Wunderground v.1.15,2013-10-12 11:27:00,
2013-10-12 07:33:00,57.8,43.1,30.11,North,360,3.0,3.0,58,0.00,,,0.00,25,Wunderground v.1.15,2013-10-12 11:33:00,
2013-10-12 07:41:00,57.8,43.1,30.11,North,360,1.0,3.0,58,0.00,,,0.00,40,Wunderground v.1.15,2013-10-12 11:41:00,
2013-10-12 07:47:00,58.0,43.3,30.12,North,360,2.0,2.0,58,0.00,,,0.00,49,Wunderground v.1.15,2013-10-12 11:47:00,
2013-10-12 07:53:00,58.1,43.4,30.12,North,360,3.0,3.0,58,0.00,,,0.00,60,Wunderground v.1.15,2013-10-12 11:53:00,
2013-10-12 08:00:00,58.6,43.4,30.12,North,360,3.0,3.0,57,0.00,,,0.00,142,Wunderground v.1.15,2013-10-12 12:00:00,
2013-10-12 08:07:00,59.0,43.8,30.13,North,360,3.0,3.0,57,0.00,,,0.00,167,Wunderground v.1.15,2013-10-12 12:07:00,
2013-10-12 08:13:00,59.5,43.8,30.13,North,360,3.0,4.0,56,0.00,,,0.00,139,Wunderground v.1.15,2013-10-12 12:13:00,
2013-10-12 08:21:00,59.9,43.7,30.13,North,360,3.0,3.0,55,0.00,,,0.00,100,Wunderground v.1.15,2013-10-12 12:21:00,
2013-10-12 08:27:00,60.1,43.9,30.13,North,360,2.0,3.0,55,0.00,,,0.00,91,Wunderground v.1.15,2013-10-12 12:27:00,
2013-10-12 08:33:00,60.1,43.9,30.13,North,360,3.0,6.0,55,0.00,,,0.00,74,Wunderground v.1.15,2013-10-12 12:33:00,
2013-10-12 08:41:00,59.9,44.2,30.13,NNE,16,3.0,5.0,56,0.00,,,0.00,81,Wunderground v.1.15,2013-10-12 12:41:00,
2013-10-12 08:47:00,59.9,44.6,30.13,North,360,2.0,2.0,57,0.00,,,0.00,283,Wunderground v.1.15,2013-10-12 12:47:00,
2013-10-12 08:53:00,60.2,44.4,30.13,North,11,2.0,3.0,56,0.00,,,0.00,285,Wunderground v.1.15,2013-10-12 12:53:00,
2013-10-12 09:01:00,61.0,44.7,30.14,North,360,2.0,4.0,55,0.00,,,0.00,253,Wunderground v.1.15,2013-10-12 13:01:00,
2013-10-12 09:07:00,61.3,44.5,30.14,North,360,2.0,2.0,54,0.00,,,0.00,121,Wunderground v.1.15,2013-10-12 13:07:00,
2013-10-12 09:12:00,61.3,43.5,30.14,North,360,4.0,7.0,52,0.00,,,0.00,176,Wunderground v.1.15,2013-10-12 13:12:00,
2013-10-12 09:20:00,61.3,43.5,30.13,North,360,5.0,5.0,52,0.00,,,0.00,176,Wunderground v.1.15,2013-10-12 13:20:00,
2013-10-12 09:26:00,61.6,43.3,30.13,North,360,4.0,4.0,51,0.00,,,0.00,181,Wunderground v.1.15,2013-10-12 13:26:00,
2013-10-12 09:32:00,62.0,43.1,30.14,NNE,15,3.0,4.0,50,0.00,,,0.00,350,Wunderground v.1.15,2013-10-12 13:32:00,
2013-10-12 09:39:00,62.6,42.6,30.14,North,360,3.0,6.0,48,0.00,,,0.00,362,Wunderground v.1.15,2013-10-12 13:39:00,
2013-10-12 09:44:00,63.1,42.5,30.14,North,360,3.0,6.0,47,0.00,,,0.00,443,Wunderground v.1.15,2013-10-12 13:44:00,
2013-10-12 09:50:00,63.4,42.2,30.14,North,360,5.0,6.0,46,0.00,,,0.00,473,Wunderground v.1.15,2013-10-12 13:50:00,
2013-10-12 09:56:00,63.9,41.5,30.14,North,360,5.0,5.0,44,0.00,,,0.00,192,Wunderground v.1.15,2013-10-12 13:56:00,
2013-10-12 10:02:00,63.9,42.1,30.14,North,360,3.0,5.0,45,0.00,,,0.00,204,Wunderground v.1.15,2013-10-12 14:02:00,
2013-10-12 10:09:00,63.9,42.7,30.14,North,360,3.0,4.0,46,0.00,,,0.00,199,Wunderground v.1.15,2013-10-12 14:09:00,
2013-10-12 10:16:00,63.9,42.7,30.14,North,360,3.0,3.0,46,0.00,,,0.00,178,Wunderground v.1.15,2013-10-12 14:16:00,
2013-10-12 10:22:00,63.9,42.1,30.14,North,360,3.0,4.0,45,0.00,,,0.00,200,Wunderground v.1.15,2013-10-12 14:22:00,
2013-10-12 10:30:00,64.0,42.8,30.14,North,360,3.0,4.0,46,0.00,,,0.00,253,Wunderground v.1.15,2013-10-12 14:30:00,
2013-10-12 10:36:00,64.2,43.0,30.16,North,360,3.0,3.0,46,0.00,,,0.00,237,Wunderground v.1.15,2013-10-12 14:36:00,
2013-10-12 10:42:00,64.7,44.0,30.16,North,360,3.0,5.0,47,0.00,,,0.00,408,Wunderground v.1.15,2013-10-12 14:42:00,
2013-10-12 10:48:00,65.3,45.1,30.16,NNE,19,2.0,3.0,48,0.00,,,0.00,255,Wunderground v.1.15,2013-10-12 14:48:00,
2013-10-12 10:53:00,65.8,44.4,30.16,North,360,2.0,2.0,46,0.00,,,0.00,357,Wunderground v.1.15,2013-10-12 14:53:00,
2013-10-12 10:59:00,66.4,45.5,30.16,North,360,2.0,6.0,47,0.00,,,0.00,452,Wunderground v.1.15,2013-10-12 14:59:00,
2013-10-12 11:05:00,67.1,44.4,30.16,North,360,3.0,3.0,44,0.00,,,0.00,686,Wunderground v.1.15,2013-10-12 15:05:00,
2013-10-12 11:10:00,67.8,45.7,30.16,NNE,13,2.0,3.0,45,0.00,,,0.00,466,Wunderground v.1.15,2013-10-12 15:10:00,
2013-10-12 11:16:00,68.1,44.7,30.17,North,360,4.0,4.0,43,0.00,,,0.00,360,Wunderground v.1.15,2013-10-12 15:16:00,
2013-10-12 11:22:00,68.1,45.4,30.17,North,360,4.0,5.0,44,0.00,,,0.00,429,Wunderground v.1.15,2013-10-12 15:22:00,
2013-10-12 11:29:00,68.4,46.2,30.17,North,360,2.0,3.0,45,0.00,,,0.00,429,Wunderground v.1.15,2013-10-12 15:29:00,
2013-10-12 11:36:00,68.8,45.4,30.17,North,360,3.0,3.0,43,0.00,,,0.00,450,Wunderground v.1.15,2013-10-12 15:36:00,
2013-10-12 11:42:00,68.9,46.1,30.17,North,360,4.0,8.0,44,0.00,,,0.00,742,Wunderground v.1.15,2013-10-12 15:42:00,
2013-10-12 11:50:00,70.1,45.3,30.17,NNE,17,3.0,3.0,41,0.00,,,0.00,492,Wunderground v.1.15,2013-10-12 15:50:00,
2013-10-12 11:56:00,70.6,45.7,30.17,North,360,3.0,3.0,41,0.00,,,0.00,557,Wunderground v.1.15,2013-10-12 15:56:00,
2013-10-12 12:02:00,70.9,45.4,30.17,North,360,3.0,3.0,40,0.00,,,0.00,628,Wunderground v.1.15,2013-10-12 16:02:00,
2013-10-12 12:09:00,71.3,45.7,30.17,North,360,2.0,3.0,40,0.00,,,0.00,589,Wunderground v.1.15,2013-10-12 16:09:00,
2013-10-12 12:14:00,71.8,44.8,30.17,NNE,15,3.0,3.0,38,0.00,,,0.00,575,Wunderground v.1.15,2013-10-12 16:14:00,
2013-10-12 12:20:00,72.1,43.7,30.16,North,360,3.0,4.0,36,0.00,,,0.00,568,Wunderground v.1.15,2013-10-12 16:20:00,
2013-10-12 12:26:00,72.3,40.8,30.16,North,360,4.0,4.0,32,0.00,,,0.00,570,Wunderground v.1.15,2013-10-12 16:26:00,
2013-10-12 12:32:00,72.3,40.0,30.16,North,360,4.0,5.0,31,0.00,,,0.00,570,Wunderground v.1.15,2013-10-12 16:32:00,
2013-10-12 12:40:00,72.3,39.1,30.16,North,360,5.0,5.0,30,0.00,,,0.00,571,Wunderground v.1.15,2013-10-12 16:40:00,
2013-10-12 12:46:00,72.1,37.2,30.16,NNE,22,5.0,5.0,28,0.00,,,0.00,571,Wunderground v.1.15,2013-10-12 16:46:00,
2013-10-12 12:52:00,71.8,35.0,30.16,North,360,5.0,9.0,26,0.00,,,0.00,570,Wunderground v.1.15,2013-10-12 16:52:00,
2013-10-12 13:00:00,72.0,37.1,30.16,North,360,6.0,6.0,28,0.00,,,0.00,575,Wunderground v.1.15,2013-10-12 17:00:00,
2013-10-12 13:06:00,72.3,36.4,30.15,NNE,22,4.0,6.0,27,0.00,,,0.00,603,Wunderground v.1.15,2013-10-12 17:06:00,
2013-10-12 13:12:00,72.0,33.2,30.15,North,360,6.0,6.0,24,0.00,,,0.00,582,Wunderground v.1.15,2013-10-12 17:12:00,
2013-10-12 13:18:00,72.5,33.6,30.15,North,360,5.0,6.0,24,0.00,,,0.00,568,Wunderground v.1.15,2013-10-12 17:18:00,
2013-10-12 13:26:00,72.0,32.1,30.15,North,360,7.0,8.0,23,0.00,,,0.00,564,Wunderground v.1.15,2013-10-12 17:26:00,
2013-10-12 13:34:00,72.0,31.0,30.15,North,360,8.0,11.0,22,0.00,,,0.00,557,Wunderground v.1.15,2013-10-12 17:34:00,
2013-10-12 13:42:00,72.5,30.3,30.15,NNE,15,7.0,12.0,21,0.00,,,0.00,552,Wunderground v.1.15,2013-10-12 17:42:00,
2013-10-12 13:52:00,72.7,29.3,30.14,North,360,6.0,11.0,20,0.00,,,0.00,548,Wunderground v.1.15,2013-10-12 17:52:00,
2013-10-12 14:02:00,73.0,30.7,30.14,North,360,5.0,7.0,21,0.00,,,0.00,538,Wunderground v.1.15,2013-10-12 18:02:00,
2013-10-12 14:13:00,73.2,27.1,30.14,North,360,6.0,6.0,18,0.00,,,0.00,527,Wunderground v.1.15,2013-10-12 18:13:00,
2013-10-12 14:21:00,73.2,25.7,30.15,NNE,25,7.0,7.0,17,0.00,,,0.00,515,Wunderground v.1.15,2013-10-12 18:21:00,
2013-10-12 14:31:00,73.5,26.0,30.15,North,360,6.0,11.0,17,0.00,,,0.00,512,Wunderground v.1.15,2013-10-12 18:31:00,
2013-10-12 14:42:00,73.9,30.3,30.15,NNE,17,5.0,6.0,20,0.00,,,0.00,496,Wunderground v.1.15,2013-10-12 18:42:00,
2013-10-12 14:51:00,73.7,34.6,30.15,NNE,24,4.0,4.0,24,0.00,,,0.00,480,Wunderground v.1.15,2013-10-12 18:51:00,
2013-10-12 15:05:00,73.5,36.5,30.15,NNE,23,4.0,4.0,26,0.00,,,0.00,446,Wunderground v.1.15,2013-10-12 19:05:00,
2013-10-12 15:16:00,73.3,38.2,30.15,North,360,4.0,4.0,28,0.00,,,0.00,459,Wunderground v.1.15,2013-10-12 19:16:00,
2013-10-12 15:22:00,73.5,39.3,30.15,NNE,19,5.0,8.0,29,0.00,,,0.00,471,Wunderground v.1.15,2013-10-12 19:22:00,
2013-10-12 15:34:00,73.2,42.4,30.16,NNE,19,6.0,6.0,33,0.00,,,0.00,220,Wunderground v.1.15,2013-10-12 19:34:00,
2013-10-12 15:44:00,73.0,44.5,30.16,NNE,18,5.0,7.0,36,0.00,,,0.00,369,Wunderground v.1.15,2013-10-12 19:44:00,
2013-10-12 15:54:00,72.5,47.5,30.16,NNE,20,5.0,5.0,41,0.00,,,0.00,334,Wunderground v.1.15,2013-10-12 19:54:00,
2013-10-12 16:04:00,72.1,49.0,30.16,North,360,4.0,5.0,44,0.00,,,0.00,35,Wunderground v.1.15,2013-10-12 20:04:00,
2013-10-12 16:15:00,71.3,50.6,30.16,North,360,5.0,5.0,48,0.00,,,0.00,40,Wunderground v.1.15,2013-10-12 20:15:00,
2013-10-12 16:24:00,70.8,51.2,30.17,North,360,5.0,5.0,50,0.00,,,0.00,42,Wunderground v.1.15,2013-10-12 20:24:00,
2013-10-12 16:32:00,70.3,50.8,30.17,North,360,6.0,6.0,50,0.00,,,0.00,33,Wunderground v.1.15,2013-10-12 20:32:00,
2013-10-12 16:41:00,70.1,51.1,30.17,North,360,4.0,8.0,51,0.00,,,0.00,28,Wunderground v.1.15,2013-10-12 20:41:00,
2013-10-12 16:52:00,69.4,52.0,30.17,North,360,5.0,7.0,54,0.00,,,0.00,33,Wunderground v.1.15,2013-10-12 20:52:00,
2013-10-12 16:58:00,69.3,52.4,30.17,North,360,6.0,6.0,55,0.00,,,0.00,32,Wunderground v.1.15,2013-10-12 20:58:00,
2013-10-12 17:10:00,68.9,52.1,30.18,North,360,5.0,11.0,55,0.00,,,0.00,32,Wunderground v.1.15,2013-10-12 21:10:00,
2013-10-12 17:16:00,68.6,52.3,30.18,North,360,6.0,18.0,56,0.00,,,0.00,28,Wunderground v.1.15,2013-10-12 21:16:00,
2013-10-12 17:22:00,68.3,52.5,30.18,North,360,7.0,11.0,57,0.00,,,0.00,28,Wunderground v.1.15,2013-10-12 21:22:00,
2013-10-12 17:29:00,67.9,53.0,30.18,North,360,7.0,11.0,59,0.00,,,0.00,25,Wunderground v.1.15,2013-10-12 21:29:00,
2013-10-12 17:36:00,67.8,54.3,30.19,North,360,5.0,7.0,62,0.00,,,0.00,23,Wunderground v.1.15,2013-10-12 21:36:00,
2013-10-12 17:42:00,67.4,54.4,30.19,NNE,20,5.0,5.0,63,0.00,,,0.00,21,Wunderground v.1.15,2013-10-12 21:42:00,
2013-10-12 17:48:00,67.1,54.9,30.19,North,360,5.0,5.0,65,0.00,,,0.00,18,Wunderground v.1.15,2013-10-12 21:48:00,
2013-10-12 17:53:00,66.9,55.6,30.19,North,360,5.0,5.0,67,0.00,,,0.00,14,Wunderground v.1.15,2013-10-12 21:53:00,
2013-10-12 17:59:00,66.6,55.7,30.19,North,360,4.0,5.0,68,0.00,,,0.00,12,Wunderground v.1.15,2013-10-12 21:59:00,
2013-10-12 18:06:00,66.3,56.2,30.19,NNE,19,5.0,6.0,70,0.00,,,0.00,7,Wunderground v.1.15,2013-10-12 22:06:00,
2013-10-12 18:12:00,66.1,56.4,30.19,NNE,20,5.0,8.0,71,0.00,,,0.00,7,Wunderground v.1.15,2013-10-12 22:12:00,
2013-10-12 18:19:00,65.8,56.5,30.19,North,360,4.0,4.0,72,0.00,,,0.00,0,Wunderground v.1.15,2013-10-12 22:19:00,
2013-10-12 18:26:00,65.6,56.7,30.19,North,360,3.0,6.0,73,0.00,,,0.00,0,Wunderground v.1.15,2013-10-12 22:26:00,
2013-10-12 18:32:00,65.5,56.6,30.20,North,360,4.0,6.0,73,0.00,,,0.00,0,Wunderground v.1.15,2013-10-12 22:32:00,
2013-10-12 18:40:00,65.2,56.7,30.20,North,360,4.0,5.0,74,0.00,,,0.00,0,Wunderground v.1.15,2013-10-12 22:40:00,
2013-10-12 18:46:00,65.0,56.5,30.20,North,360,4.0,4.0,74,0.00,,,0.00,0,Wunderground v.1.15,2013-10-12 22:46:00,
2013-10-12 18:52:00,65.0,56.9,30.20,North,360,4.0,8.0,75,0.00,,,0.00,0,Wunderground v.1.15,2013-10-12 22:52:00,
2013-10-12 18:59:00,64.8,56.7,30.20,North,360,4.0,7.0,75,0.00,,,0.00,0,Wunderground v.1.15,2013-10-12 22:59:00,
2013-10-12 19:04:00,64.8,56.7,30.21,North,360,3.0,4.0,75,0.00,,,0.00,0,Wunderground v.1.15,2013-10-12 23:04:00,
2013-10-12 19:10:00,64.8,57.1,30.21,North,360,4.0,4.0,76,0.00,,,0.00,0,Wunderground v.1.15,2013-10-12 23:10:00,
2013-10-12 19:16:00,64.8,57.1,30.21,North,360,3.0,4.0,76,0.00,,,0.00,0,Wunderground v.1.15,2013-10-12 23:16:00,
2013-10-12 19:22:00,64.8,57.1,30.21,North,360,4.0,4.0,76,0.00,,,0.00,0,Wunderground v.1.15,2013-10-12 23:22:00,
2013-10-12 19:29:00,64.8,56.7,30.21,North,360,3.0,5.0,75,0.00,,,0.00,0,Wunderground v.1.15,2013-10-12 23:29:00,
2013-10-12 19:36:00,64.8,57.4,30.22,North,360,3.0,3.0,77,0.00,,,0.00,0,Wunderground v.1.15,2013-10-12 23:36:00,
2013-10-12 19:42:00,64.8,57.4,30.22,North,360,3.0,9.0,77,0.00,,,0.00,0,Wunderground v.1.15,2013-10-12 23:42:00,
2013-10-12 19:50:00,64.7,57.3,30.22,NNE,20,5.0,5.0,77,0.00,,,0.00,0,Wunderground v.1.15,2013-10-12 23:50:00,
2013-10-12 19:56:00,64.7,57.3,30.22,North,360,5.0,6.0,77,0.00,,,0.00,0,Wunderground v.1.15,2013-10-12 23:56:00,
2013-10-12 20:02:00,64.7,57.0,30.22,North,360,5.0,8.0,76,0.00,,,0.00,0,Wunderground v.1.15,2013-10-13 00:02:00,
2013-10-12 20:10:00,64.5,56.8,30.22,NNE,19,4.0,8.0,76,0.00,,,0.00,0,Wunderground v.1.15,2013-10-13 00:10:00,
2013-10-12 20:16:00,64.5,56.8,30.22,North,360,5.0,5.0,76,0.00,,,0.00,0,Wunderground v.1.15,2013-10-13 00:16:00,
2013-10-12 20:21:00,64.3,56.6,30.22,North,360,4.0,8.0,76,0.00,,,0.00,0,Wunderground v.1.15,2013-10-13 00:21:00,
2013-10-12 20:28:00,64.3,56.2,30.22,North,360,5.0,5.0,75,0.00,,,0.00,0,Wunderground v.1.15,2013-10-13 00:28:00,
2013-10-12 20:33:00,64.2,56.1,30.22,NNE,19,4.0,7.0,75,0.00,,,0.00,0,Wunderground v.1.15,2013-10-13 00:33:00,
2013-10-12 20:39:00,64.0,55.9,30.22,North,360,4.0,5.0,75,0.00,,,0.00,0,Wunderground v.1.15,2013-10-13 00:39:00,
2013-10-12 20:45:00,64.0,55.9,30.23,North,360,4.0,4.0,75,0.00,,,0.00,0,Wunderground v.1.15,2013-10-13 00:45:00,
2013-10-12 20:51:00,64.0,55.5,30.23,North,360,5.0,9.0,74,0.00,,,0.00,0,Wunderground v.1.15,2013-10-13 00:51:00,
2013-10-12 20:59:00,64.0,55.5,30.23,North,360,2.0,4.0,74,0.00,,,0.00,0,Wunderground v.1.15,2013-10-13 00:59:00,
2013-10-12 21:06:00,64.0,55.5,30.24,North,360,2.0,8.0,74,0.00,,,0.00,0,Wunderground v.1.15,2013-10-13 01:06:00,
2013-10-12 21:12:00,63.9,54.7,30.24,North,360,5.0,8.0,72,0.00,,,0.00,0,Wunderground v.1.15,2013-10-13 01:12:00,
2013-10-12 21:19:00,63.7,54.1,30.24,NNE,16,6.0,6.0,71,0.00,,,0.00,0,Wunderground v.1.15,2013-10-13 01:19:00,
2013-10-12 21:26:00,63.7,53.7,30.24,North,360,4.0,4.0,70,0.00,,,0.00,0,Wunderground v.1.15,2013-10-13 01:26:00,
2013-10-12 21:32:00,63.7,53.7,30.25,North,360,4.0,8.0,70,0.00,,,0.00,0,Wunderground v.1.15,2013-10-13 01:32:00,
2013-10-12 21:40:00,63.5,53.1,30.25,NNE,16,4.0,7.0,69,0.00,,,0.00,0,Wunderground v.1.15,2013-10-13 01:40:00,
2013-10-12 21:46:00,63.4,53.0,30.25,NNE,17,5.0,7.0,69,0.00,,,0.00,0,Wunderground v.1.15,2013-10-13 01:46:00,
2013-10-12 21:52:00,63.4,53.0,30.25,North,360,5.0,7.0,69,0.00,,,0.00,0,Wunderground v.1.15,2013-10-13 01:52:00,
2013-10-12 22:00:00,63.2,52.9,30.25,NNE,17,4.0,9.0,69,0.00,,,0.00,0,Wunderground v.1.15,2013-10-13 02:00:00,
2013-10-12 22:06:00,63.1,53.2,30.25,NNE,19,4.0,4.0,70,0.00,,,0.00,0,Wunderground v.1.15,2013-10-13 02:06:00,
2013-10-12 22:12:00,63.1,53.2,30.25,North,360,5.0,9.0,70,0.00,,,0.00,0,Wunderground v.1.15,2013-10-13 02:12:00,
2013-10-12 22:19:00,62.7,52.8,30.25,North,360,5.0,12.0,70,0.00,,,0.00,0,Wunderground v.1.15,2013-10-13 02:19:00,
2013-10-12 22:24:00,62.6,52.7,30.25,North,360,5.0,12.0,70,0.00,,,0.00,0,Wunderground v.1.15,2013-10-13 02:24:00,
2013-10-12 22:30:00,62.6,52.7,30.25,North,360,5.0,7.0,70,0.00,,,0.00,0,Wunderground v.1.15,2013-10-13 02:30:00,
2013-10-12 22:36:00,62.4,52.9,30.26,North,360,5.0,5.0,71,0.00,,,0.00,0,Wunderground v.1.15,2013-10-13 02:36:00,
2013-10-12 22:42:00,62.3,52.8,30.26,North,360,4.0,8.0,71,0.00,,,0.00,0,Wunderground v.1.15,2013-10-13 02:42:00,
2013-10-12 22:50:00,62.3,52.8,30.26,North,360,4.0,7.0,71,0.00,,,0.00,0,Wunderground v.1.15,2013-10-13 02:50:00,
2013-10-12 22:56:00,62.1,52.6,30.26,NNE,19,4.0,4.0,71,0.00,,,0.00,0,Wunderground v.1.15,2013-10-13 02:56:00,
2013-10-12 23:02:00,62.1,52.6,30.27,North,360,4.0,4.0,71,0.00,,,0.00,0,Wunderground v.1.15,2013-10-13 03:02:00,
2013-10-12 23:10:00,62.1,52.6,30.27,North,360,3.0,5.0,71,0.00,,,0.00,0,Wunderground v.1.15,2013-10-13 03:10:00,
2013-10-12 23:16:00,62.0,52.5,30.26,North,360,4.0,4.0,71,0.00,,,0.00,0,Wunderground v.1.15,2013-10-13 03:16:00,
2013-10-12 23:22:00,62.0,52.5,30.26,NNE,17,3.0,5.0,71,0.00,,,0.00,0,Wunderground v.1.15,2013-10-13 03:22:00,
2013-10-12 23:28:00,61.8,52.3,30.26,North,360,4.0,4.0,71,0.00,,,0.00,0,Wunderground v.1.15,2013-10-13 03:28:00,
2013-10-12 23:33:00,61.6,52.5,30.26,NNE,15,4.0,4.0,72,0.00,,,0.00,0,Wunderground v.1.15,2013-10-13 03:33:00,
2013-10-12 23:39:00,61.5,52.4,30.26,NNE,19,3.0,5.0,72,0.00,,,0.00,0,Wunderground v.1.15,2013-10-13 03:39:00,
2013-10-12 23:45:00,61.3,52.2,30.26,NNE,16,4.0,4.0,72,0.00,,,0.00,0,Wunderground v.1.15,2013-10-13 03:45:00,
2013-10-12 23:51:00,61.3,52.2,30.26,North,360,3.0,4.0,72,0.00,,,0.00,0,Wunderground v.1.15,2013-10-13 03:51:00,
2013-10-12 23:58:00,61.2,52.1,30.26,NNE,19,2.0,6.0,72,0.00,,,0.00,0,Wunderground v.1.15,2013-10-13 03:58:00,